This demonstration page uses our WeatherBlox Daily Observations layout. Learn more.

Left ArrowRight Arrow

34.74481, -87.66753

Hourly Observations for June 23, 2020

Temp ( °F °C ) Dew Point ( °F °C ) Humidity (%) Winds ( mph kmh ) Pressure ( in mb ) Visibility ( mi km ) Precip ( " mm )
12:04 am 00:04 Cloudy with Heavy Rain 73 22.8 70 21.1 90 90 S 14 22 29.88 1012 1 2 0.24 6.10
12:08 am 00:08 Cloudy with Heavy Rain 73 22.8 70 21.1 90 90 S 12 19 29.87 1012 2 3 0.28 7.11
12:27 am 00:27 Cloudy with Light Rain 73 22.8 71 21.7 94 94 S 8 13 29.86 1011 8 13 0.34 8.64
12:53 am 00:53 Cloudy 74 23.3 70 21.1 88 88 S 8 13 29.85 1011 10 16 0.34 8.64
1:03 am 01:03 Cloudy 74 23.3 70 21.1 88 88 S 9 15 29.85 1011 10 16 0.00 0.00
1:39 am 01:39 Cloudy with Heavy Rain 74 23.3 71 21.7 91 91 S 8 13 29.85 1011 2 3 0.09 2.29
1:46 am 01:46 Cloudy with Heavy Rain 74 23.3 71 21.7 91 91 SW 7 11 29.84 1011 1 2 0.20 5.08
1:53 am 01:53 Cloudy with Heavy Rain 74 23.3 71 21.7 91 91 S 3 6 29.84 1010 2 2 0.26 6.60
1:56 am 01:56 Cloudy with Heavy Rain 74 23.3 71 21.7 91 91 S 6 9 29.84 1011 2 3 0.01 0.25
2:03 am 02:03 Cloudy with Heavy Rain 74 23.3 71 21.7 91 91 SSE 9 15 29.84 1011 3 5 0.03 0.76
2:14 am 02:14 Cloudy with Light Rain 74 23.3 71 21.7 91 91 W 6 9 29.84 1011 5 8 0.05 1.27
2:19 am 02:19 Cloudy with Heavy Rain 74 23.3 71 21.7 91 91 W 8 13 29.83 1010 3 4 0.14 3.56
2:26 am 02:26 Cloudy with Heavy Rain 74 23.3 71 21.7 91 91 SSW 12 19 29.83 1010 1 2 0.34 8.64
2:37 am 02:37 Cloudy with Rain 74 23.3 71 21.7 91 91 SW 9 15 29.83 1010 3 5 0.38 9.65
2:53 am 02:53 Cloudy with Light Rain 74 23.3 71 21.7 91 91 SW 12 19 29.82 1010 3 4 0.44 11.18
3:01 am 03:01 Cloudy 75 23.9 71 21.7 88 88 WSW 15 24 29.83 1010 10 16 0.00 0.00
3:25 am 03:25 Cloudy 75 23.9 71 21.7 88 88 WSW 9 15 29.83 1010 10 16 0.00 0.00
3:53 am 03:53 Mostly Cloudy 75 23.9 71 21.7 88 88 WSW 13 20 29.83 1010 10 16 0.00 0.00
4:21 am 04:21 Partly Cloudy 75 23.9 71 21.7 88 88 WSW 13 20 29.83 1010 10 16 0.00 0.00
4:50 am 04:50 Cloudy 75 24 72 22 89 89 WSW 13 20 29.83 1010 10 16 0.00 0.00
4:53 am 04:53 Cloudy 75 23.9 71 21.7 88 88 WSW 12 19 29.83 1010 10 16 0.00 0.00
5:53 am 05:53 Cloudy 75 23.9 71 21.7 88 88 WSW 6 9 29.85 1011 10 16 0.00 0.00
6:53 am 06:53 Cloudy 75 23.9 72 22.2 90 90 WSW 8 13 29.84 1010 10 16 0.00 0.00
7:53 am 07:53 Cloudy 76 24.4 72 22.2 88 88 WSW 8 13 29.87 1012 10 16 0.00 0.00
8:36 am 08:36 Cloudy 77 25 72 22.2 85 85 W 9 15 29.89 1012 10 16 0.00 0.00
8:53 am 08:53 Cloudy 78 25.6 72 22.2 82 82 W 13 20 29.89 1012 10 16 0.00 0.00
9:53 am 09:53 Cloudy 81 27.2 73 22.8 77 77 W 8 13 29.88 1012 10 16 0.00 0.00
10:53 am 10:53 Cloudy 82 27.8 73 22.8 74 74 W 8 13 29.88 1012 10 16 0.00 0.00
11:53 am 11:53 Mostly Cloudy 85 29.4 72 22.2 65 65 W 12 19 29.88 1012 10 16 0.00 0.00
12:53 pm 12:53 Mostly Sunny 84 28.9 75 23.9 74 74 Calm 29.86 1011 10 16 0.07 1.78
1:53 pm 13:53 Cloudy with Light Rain 82 27.8 73 22.8 74 74 NW 7 11 29.84 1011 8 13 0.00 0.00
2:53 pm 14:53 Sunny 80 26.7 67 19.4 64 64 WSW 6 9 29.83 1010 10 16 0.00 0.00
4:53 pm 16:53 Sunny 81 27.2 71 21.7 72 72 WSW 10 17 29.86 1011 10 16 0.00 0.00
5:36 pm 17:36 Mostly Cloudy with Heavy Rain 76 24.4 72 22.2 88 88 WSW 10 17 29.87 1011 1 1 0.27 6.86
5:42 pm 17:42 Mostly Cloudy with Light Rain 76 24.4 72 22.2 88 88 WSW 15 24 29.87 1011 1 2 0.28 7.11
5:46 pm 17:46 Mostly Cloudy with Rain 76 24.4 72 22.2 88 88 WSW 13 20 29.87 1011 4 6 0.29 7.37
5:53 pm 17:53 Cloudy with Light Rain 76 24.4 72 22.2 88 88 W 10 17 29.86 1011 7 11 0.29 7.37
6:06 pm 18:06 Cloudy with Light Rain 76 24.4 72 22.2 88 88 WSW 8 13 29.85 1011 10 16 0.01 0.25
6:53 pm 18:53 Sunny with Light Rain 75 23.9 71 21.7 88 88 W 8 13 29.83 1010 10 16 0.02 0.51
7:19 pm 19:19 Mostly Cloudy 74 23.3 70 21.1 88 88 WSW 7 11 29.86 1011 10 16 0.00 0.00
7:53 pm 19:53 Sunny 73 22.8 70 21.1 90 90 W 7 11 29.88 1012 10 16 0.00 0.00
8:53 pm 20:53 Clear N/A N/A N/A W 6 9 N/A 10 16 0.00 0.00
9:53 pm 21:53 Clear 72 22.2 68 20 87 87 Calm 29.90 1012 10 16 0.00 0.00
10:53 pm 22:53 Clear 71 21.7 68 20 90 90 W 3 6 29.92 1013 10 16 0.00 0.00
11:53 pm 23:53 Clear 71 21.7 68 20 90 90 W 5 7 29.93 1014 10 16 0.00 0.00

Powered by AerisWeather